Regional Weather Roundup
Issued by NWS

Home | Current Version | Previous Version | Graphics & Text | Print | Product List | Glossary On
Versions: 1 2 3 4 5 6 7 8 9 10 11 12 13 14 15 16 17 18 19 20 21 22 23 24 25 26 27 28
000
ASUS45 KCYS 262210
RWRWY

WYOMING REGIONAL WEATHER ROUNDUP
NATIONAL WEATHER SERVICE CHEYENNE WY
400 PM MDT FRI AUG 26 2016

NOTE:  "FAIR" INDICATES FEW OR NO CLOUDS BELOW 12,000 FEET
WITH NO SIGNIFICANT WEATHER AND/OR OBSTRUCTIONS TO VISIBILITY.

WYZ001-262300-
YELLOWSTONE NATIONAL PARK

CITY           SKY/WX    TMP DP  RH WIND       PRES   REMARKS
LK YELLOWSTONE   N/A     56  36  47 CALM      30.16F
W YELLOWSTONE  NOT AVBL

$$
WYZ002>013-054>058-071-098>099-262300-
NORTHERN WYOMING

CITY           SKY/WX    TMP DP  RH WIND       PRES   REMARKS
JACKSON        NOT AVBL
CODY           PTSUNNY   61  43  51 N16G22    30.07R
GREYBULL       FAIR      72  37  28 W5        30.00F
WORLAND        PTSUNNY   67  44  43 W3        30.02S
SHERIDAN       FAIR      72  43  35 VRB3      30.01F
BUFFALO        FAIR      71  38  29 VRB5      30.07F
GILLETTE       FAIR      73  41  31 NW6       30.01F
HULETT         CLOUDY    55  54  94 E6        30.06F
NEWCASTLE      FAIR      68  46  45 SE7       30.05F

$$
WYZ014>020-022>026-101>103-262300-
CENTRAL WYOMING

CITY           SKY/WX    TMP DP  RH WIND       PRES   REMARKS
BIG PINEY      PTSUNNY   69  28  21 NW17G26   30.13S
PINEDALE       LGT RAIN  59  32  36 MISG      30.19R
DUBOIS         CLOUDY    57  36  44 S13       30.12F
LANDER         FAIR      70  35  27 SW8       30.03F
RIVERTON       FAIR      70  42  36 N9        30.05S
CASPER         FAIR      73  39  29 W7        30.04F
DOUGLAS        FAIR      77  38  24 N16       30.04F

$$
WYZ021-027>030-104>119-262300-
SOUTHERN WYOMING

CITY           SKY/WX    TMP DP  RH WIND       PRES   REMARKS
EVANSTON       FAIR      73  28  18 W21G35    30.12F
FORT BRIDGER   MOCLDY    71  37  28 SE9G22    30.14F
ROCK SPRINGS   CLOUDY    65  31  28 SW31G40   30.12R
DIXON          MOCLDY    69  31  25 N23G33    30.18R
RAWLINS        PTSUNNY   70  25  18 SW17G23   30.13S
SARATOGA       FAIR      70  23  17 W7G20     30.15S
LARAMIE        FAIR      71  25  17 W17G23    30.13F
CHEYENNE       FAIR      61  54  77 SE13      30.14R
TORRINGTON     FAIR      70  54  56 SE21      30.03R
PINE BLUFFS    LGT RAIN  57  50  77 SE9       30.10S

$$




USA.gov is the U.S. government's official web portal to all federal, state and local government web resources and services.